User: anonymous   Login
Location: Wawayanda State Park
(41.1833°N, 74.4333°W)
Time: 07:08:50
(UTC-04:00)
Language:

RESURS DK-1 - Orbit

View from above orbital plane
View from above orbital plane
View from above satellite
View from above satellite

Ground track
Ground track

The orbit data is extracted from the following two-line orbital elements,

1 29228U 06021A   16127.21120881  .00000604  00000-0  53599-4 0  9997
2 29228  69.9376  53.3135 0007988 249.3555 110.6764 15.01886297546995
Epoch (UTC): 06 May 2016 05:04:08
Eccentricity: 0.0007988
inclination: 69.9376°
perigee height: 555 km
apogee height: 566 km
right ascension of ascending node: 53.3135°
argument of perigee: 249.3555°
revolutions per day: 15.01886297
mean anomaly at epoch: 110.6764°
orbit number at epoch: 54699

The dashed part of the orbit path shows where the satellite is in the earth's shadow,  

DLR